Regional Weather Roundup
Issued by NWS

Home | Current Version | Previous Version | Text Only | Print | Product List | Glossary Off
Versions: 1 2 3 4 5 6 7 8 9 10 11 12 13 14 15 16 17 18 19 20 21 22 23 24 25 26 27 28 29 30 31 32 33 34 35 36 37 38 39 40 41 42 43 44 45 46 47 48 49 50

000
ASUS45 KABQ 022310
RWRNM
NEW MEXICO REGIONAL WEATHER ROUNDUP
NATIONAL WEATHER SERVICE ALBUQUERQUE NM
500 PM MDT MON MAY 02 2016

NOTE: "FAIR" MEANS FEW OR NO CLOUDS BELOW 12,000 FEET AGL WITH NO
       SIGNIFICANT WEATHER OR OBSTRUCTIONS TO VISION.

      THIS PRODUCT IS RELEASED AS TWO VERSIONS.  ONE VERSION NEAR
      THE TOP OF THE HOUR CONTAINING PRELIMINARY DATA FROM ALBUQUERQUE
      AND OTHER STATIONS.  A FINAL VERSION WITH ADDITIONAL DATA IS
      ISSUED ABOUT 10 MINUTES AFTER THE HOUR.

NMZ501-503-504-510>518-030000-
NORTHWEST PLATEAU/NORTHCENTRAL MOUNTAINS

CITY           SKY/WX    TMP DP  RH WIND       PRES   REMARKS
FARMINGTON     FAIR      61  30  31 CALM      30.14F
LOS ALAMOS     CLOUDY    51  32  49 CALM      30.21S
SANTA FE       FAIR      58  29  33 S6        30.16F
TAOS           FAIR      55  28  35 W9        30.18S
ANGEL FIRE     FAIR      50  30  45 W13       30.20S

$$
NMZ402-403-502-505>509-030000-
WESTCENTRAL MOUNTAINS/SOUTHWEST MOUNTAINS

CITY           SKY/WX    TMP DP  RH WIND       PRES   REMARKS
GALLUP         FAIR      59  33  37 VRB6      30.16F
GRANTS         CLOUDY    55  32  42 CALM      30.18F

$$
NMZ407-409-411-412-030000-
SOUTHERN DESERTS

CITY           SKY/WX    TMP DP  RH WIND       PRES   REMARKS
LORDSBURG      FAIR      72  32  23 SE12G20   30.07F
DEMING         FAIR      71  31  22 VRB3      30.08F
LAS CRUCES     FAIR      70  29  21 E6        30.10F
HOLLOMAN AFB   FAIR      68  31  25 W5        30.09F
T OR C         FAIR      69  29  22 E10       30.09F

$$
NMZ519>523-030000-
CENTRAL VALLEYS/CENTRAL HIGHLANDS

CITY           SKY/WX    TMP DP  RH WIND       PRES   REMARKS
ALBUQUERQUE    FAIR      62  31  31 W8        30.15F
DOUBLE EAGLE   MOSUNNY   59  34  38 VRB3      30.17F
MORIARTY ARPT  PTSUNNY   60  28  29 W9        30.17F
CLINES CORNERS CLOUDY    56  28  34 W14       30.17F
BELEN          NOT AVBL
SOCORRO        FAIR      66  28  23 CALM      30.12F

$$
NMZ524>526-539-540-030000-
SOUTHCENTRAL MOUNTAINS

CITY           SKY/WX    TMP DP  RH WIND       PRES   REMARKS
RUIDOSO        NOT AVBL

$$
NMZ527>531-030000-
NORTHEAST HIGHLANDS/NORTHEAST PLAINS

CITY           SKY/WX    TMP DP  RH WIND       PRES   REMARKS
LAS VEGAS      FAIR      56  30  37 S13       30.15F
RATON          CLOUDY    55  30  38 W8        30.14F
CLAYTON        FAIR      57  33  40 S3        30.12F

$$
NMZ532>537-030000-
EASTCENTRAL PLAINS

CITY           SKY/WX    TMP DP  RH WIND       PRES   REMARKS
TUCUMCARI      FAIR      64  33  31 VRB5      30.11F
CANNON AFB     FAIR      63  34  33 VRB1      30.13F
CLOVIS AIRPORT FAIR      63  36  36 CALM      30.15S

$$
NMZ028-029-538-030000-
SOUTHEAST PLAINS

CITY           SKY/WX    TMP DP  RH WIND       PRES   REMARKS
ROSWELL        FAIR      66  33  29 SE6       30.11F
CARLSBAD       FAIR      66  34  30 MISG      30.10F
HOBBS          SUNNY     64  32  29 NE7       30.13F


$$




USA.gov is the U.S. government's official web portal to all federal, state and local government web resources and services.